Cincinnati, OH

12:34 AM EST on December 16, 2019 (GMT -0500)
Cincinnati Municipal-Lunken

Weather History for KLUK - November, 2019

Change the Weather History Date:

Saturday, November 16, 2019

  Actual Average Record
Temperature  
Mean Temperature 36 °F -  
Max Temperature 46 °F 54 °F 74 °F (1958)
Min Temperature 25 °F 33 °F 19 °F (1967)
Degree Days  
Heating Degree Days 30    
Moisture  
Dew Point 26 °F    
Average Humidity 77    
Maximum Humidity 96    
Minimum Humidity 50    
Precipitation  
Precipitation 0.00 in - - ()
Sea Level Pressure  
Sea Level Pressure 30.34 in    
Wind  
Wind Speed 6 mph ()    
Max Wind Speed 15 mph    
Max Gust Speed 23 mph    
Visibility 7.7 miles    
Events      
Averages and records for this station are not official NWS values.
T = Trace of Precipitation, MM = Missing Value Source: Averaged Metar Reports

Daily Weather History Graph

Daily Weather History Graph

Search for Another Location

Airport or City:

Astronomy

Nov. 16, 2019 Rise Set
Actual Time 7:21 AM EST 5:22 PM EST
Civil Twilight 6:53 AM EST 5:51 PM EST
Nautical Twilight 6:20 AM EST 6:23 PM EST
Astronomical Twilight 5:48 AM EST 6:55 PM EST
Moon 8:55 PM EST 11:13 AM EST
Length of Visible Light 10h 58m
Length of Day
10h 01m
Waning Gibbous, 82% of the Moon is Illuminated
Nov 16
Waning Gibbous
Nov 19
Last Quarter
Nov 26
New
Dec 4
First Quarter
Dec 12
Full

Hourly Weather History & Observations

Time (EST) Temp. Windchill Dew Point Humidity Pressure Visibility Wind Dir Wind Speed Gust Speed Precip Events Conditions
12:45 AM 30.0 °F 20.0 °F 25.0 °F 82% 30.38 in 7.0 mi NE 12.7 mph - N/A   Mostly Cloudy
12:53 AM 30.9 °F 22.2 °F 26.1 °F 82% 30.40 in 7.0 mi NE 10.4 mph 23.0 mph N/A   Mostly Cloudy
1:53 AM 32.0 °F 23.6 °F 27.0 °F 82% 30.39 in 7.0 mi NE 10.4 mph - N/A   Overcast
2:53 AM 33.1 °F 25.5 °F 27.0 °F 78% 30.38 in 7.0 mi NE 9.2 mph - N/A   Overcast
3:53 AM 33.1 °F 24.4 °F 27.0 °F 78% 30.38 in 6.0 mi NE 11.5 mph - N/A   Haze
4:53 AM 30.9 °F - 26.1 °F 82% 30.38 in 6.0 mi Calm Calm - N/A   Haze
5:53 AM 27.0 °F - 25.0 °F 92% 30.39 in 5.0 mi Calm Calm - N/A   Clear
6:53 AM 26.1 °F - 23.0 °F 88% 30.40 in 4.0 mi Calm Calm - N/A   Clear
7:53 AM 26.1 °F - 24.1 °F 92% 30.42 in 5.0 mi Calm Calm - N/A   Clear
8:53 AM 32.0 °F - 28.9 °F 88% 30.42 in 5.0 mi Calm Calm - N/A   Clear
9:53 AM 37.0 °F 30.4 °F 28.0 °F 70% 30.42 in 7.0 mi ENE 9.2 mph - N/A   Clear
10:53 AM 41.0 °F 33.1 °F 28.0 °F 60% 30.40 in 10.0 mi NE 15.0 mph 20.7 mph N/A   Clear
11:53 AM 43.0 °F 37.2 °F 28.0 °F 56% 30.37 in 10.0 mi NNE 10.4 mph - N/A   Clear
12:53 PM 44.1 °F 40.1 °F 27.0 °F 51% 30.33 in 10.0 mi ENE 6.9 mph - N/A   Clear
2:53 PM 46.0 °F 41.4 °F 28.0 °F 50% 30.28 in 10.0 mi ENE 9.2 mph - N/A   Clear
3:53 PM 45.0 °F 39.7 °F 28.9 °F 53% 30.27 in 10.0 mi NNE 10.4 mph - N/A   Clear
4:53 PM 41.0 °F 34.3 °F 28.0 °F 60% 30.28 in 10.0 mi NNE 11.5 mph - N/A   Clear
5:53 PM 37.0 °F 33.3 °F 27.0 °F 67% 30.28 in 10.0 mi NNE 4.6 mph - N/A   Clear
6:53 PM 32.0 °F - 27.0 °F 82% 30.29 in 10.0 mi Calm Calm - N/A   Clear
7:53 PM 30.0 °F - 26.1 °F 85% 30.28 in 9.0 mi Calm Calm - N/A   Clear
8:53 PM 28.0 °F 24.2 °F 26.1 °F 92% 30.27 in 10.0 mi NE 3.5 mph - N/A   Clear
9:53 PM 28.0 °F 24.2 °F 26.1 °F 92% 30.25 in 10.0 mi NE 3.5 mph - N/A   Clear
10:53 PM 25.0 °F - 24.1 °F 96% 30.24 in 6.0 mi Calm Calm - N/A   Clear
11:53 PM 26.1 °F - 24.1 °F 92% 30.22 in 4.0 mi Calm Calm - N/A   Clear